| time (UTC) | temp F | wind direction | speed knots | gust knots | rain 1hr in | rain 24hr in | rain mn in | humidity % | barometer mb |
| 20260509174557 | 67 | 0 | 0.9 | 2.6 | 0.00 | 0.00 | 0.00 | 58 | 1017.8 |
| 20260509173105 | 67 | 0 | 0.0 | 1.7 | 0.00 | 0.00 | 0.00 | 58 | 1017.8 |
| 20260509171551 | 68 | 36 | 0.0 | 4.3 | 0.00 | 0.00 | 0.00 | 57 | 1017.6 |
| 20260509170057 | 68 | 355 | 0.9 | 2.6 | 0.00 | 0.00 | 0.00 | 57 | 1017.6 |
| 20260509164554 | 69 | 350 | 0.0 | 2.6 | 0.00 | 0.00 | 0.00 | 54 | 1017.7 |
| 20260509163056 | 71 | 123 | 0.9 | 3.5 | 0.00 | 0.00 | 0.00 | 52 | 1017.7 |
| 20260509161603 | 72 | 115 | 0.9 | 3.5 | 0.00 | 0.00 | 0.00 | 47 | 1017.9 |
| 20260509160101 | 72 | 133 | 0.9 | 4.3 | 0.00 | 0.00 | 0.00 | 48 | 1017.9 |
| 20260509154552 | 72 | 74 | 0.9 | 7.0 | 0.00 | 0.00 | 0.00 | 46 | 1018.0 |
| 20260509153058 | 72 | 192 | 0.9 | 4.3 | 0.00 | 0.00 | 0.00 | 45 | 1018.0 |
| 20260509151555 | 73 | 130 | 0.9 | 3.5 | 0.00 | 0.00 | 0.00 | 44 | 1018.2 |
| 20260509150052 | 72 | 335 | 0.0 | 6.1 | 0.00 | 0.00 | 0.00 | 45 | 1018.1 |
| 20260509144554 | 72 | 299 | 0.9 | 6.1 | 0.00 | 0.00 | 0.00 | 47 | 1018.3 |
| 20260509143058 | 71 | 74 | 0.0 | 1.7 | 0.00 | 0.00 | 0.00 | 47 | 1018.6 |
| 20260509141550 | 71 | 115 | 0.0 | 5.2 | 0.00 | 0.00 | 0.00 | 47 | 1018.8 |
| 20260509140105 | 71 | 119 | 0.0 | 3.5 | 0.00 | 0.00 | 0.00 | 45 | 1018.9 |
| 20260509134556 | 72 | 105 | 0.9 | 6.1 | 0.00 | 0.00 | 0.00 | 46 | 1019.0 |
| 20260509133054 | 70 | 283 | 0.9 | 6.1 | 0.00 | 0.00 | 0.00 | 47 | 1019.1 |
| 20260509131556 | 71 | 0 | 0.0 | 3.5 | 0.00 | 0.00 | 0.00 | 44 | 1019.1 |
| 20260509130056 | 71 | 0 | 0.9 | 3.5 | 0.00 | 0.00 | 0.00 | 43 | 1019.1 |
| 20260509124553 | 73 | 118 | 1.7 | 7.0 | 0.00 | 0.00 | 0.00 | 41 | 1019.1 |
| 20260509123057 | 74 | 78 | 0.9 | 4.3 | 0.00 | 0.00 | 0.00 | 39 | 1019.2 |
| 20260509121551 | 73 | 63 | 0.0 | 6.1 | 0.00 | 0.00 | 0.00 | 39 | 1019.4 |
| 20260509120056 | 73 | 47 | 0.0 | 7.0 | 0.00 | 0.00 | 0.00 | 37 | 1019.4 |
| 20260509114552 | 72 | 144 | 3.5 | 7.0 | 0.00 | 0.00 | 0.00 | 37 | 1019.5 |
| 20260509113055 | 71 | 140 | 1.7 | 8.7 | 0.00 | 0.00 | 0.00 | 40 | 1019.7 |
| 20260509111558 | 71 | 138 | 1.7 | 7.0 | 0.00 | 0.00 | 0.00 | 40 | 1019.8 |
| 20260509110053 | 71 | 113 | 1.7 | 7.0 | 0.00 | 0.00 | 0.00 | 38 | 1019.8 |
| 20260509104555 | 71 | 143 | 1.7 | 7.8 | 0.00 | 0.00 | 0.00 | 39 | 1020.0 |
| 20260509103104 | 70 | 128 | 1.7 | 7.8 | 0.00 | 0.00 | 0.00 | 40 | 1020.1 |
| 20260509101608 | 69 | 296 | 2.6 | 8.7 | 0.00 | 0.00 | 0.00 | 40 | 1020.2 |
| 20260509100055 | 68 | 59 | 1.7 | 7.8 | 0.00 | 0.00 | 0.00 | 41 | 1020.2 |
| 20260509094600 | 68 | 100 | 0.9 | 7.8 | 0.00 | 0.00 | 0.00 | 43 | 1020.3 |
| 20260509093052 | 67 | 128 | 3.5 | 7.8 | 0.00 | 0.00 | 0.00 | 46 | 1020.3 |
| 20260509091558 | 67 | 0 | 0.9 | 6.1 | 0.00 | 0.00 | 0.00 | 46 | 1020.3 |
| 20260509090101 | 66 | 336 | 0.9 | 6.1 | 0.00 | 0.00 | 0.00 | 48 | 1020.3 |
| 20260509084607 | 67 | 152 | 0.9 | 7.0 | 0.00 | 0.00 | 0.00 | 48 | 1020.4 |
| 20260509083111 | 65 | 131 | 0.9 | 4.3 | 0.00 | 0.00 | 0.00 | 48 | 1020.4 |
| 20260509081553 | 66 | 155 | 0.9 | 3.5 | 0.00 | 0.00 | 0.00 | 50 | 1020.5 |
| 20260509080059 | 64 | 128 | 0.9 | 3.5 | 0.00 | 0.00 | 0.00 | 55 | 1020.6 |
| 20260509074610 | 62 | 0 | 0.9 | 3.5 | 0.00 | 0.00 | 0.00 | 56 | 1020.6 |
| 20260509073105 | 61 | 0 | 0.0 | 1.7 | 0.00 | 0.00 | 0.00 | 59 | 1020.6 |
| 20260509071558 | 60 | 0 | 0.0 | 1.7 | 0.00 | 0.00 | 0.00 | 63 | 1020.6 |
| 20260509070057 | 59 | 0 | 0.0 | 2.6 | 0.00 | 0.00 | 0.00 | 65 | 1020.7 |
| 20260509064605 | 58 | 0 | 0.0 | 2.6 | 0.00 | 0.00 | 0.00 | 67 | 1020.6 |
| 20260509063104 | 56 | 93 | 0.0 | 1.7 | 0.00 | 0.00 | 0.00 | 70 | 1020.6 |
| 20260509061607 | 55 | 132 | 0.0 | 2.6 | 0.00 | 0.00 | 0.00 | 72 | 1020.6 |
| 20260509060117 | 55 | 144 | 0.0 | 1.7 | 0.00 | 0.00 | 0.00 | 75 | 1020.6 |
| 20260509054554 | 54 | 0 | 0.0 | 1.7 | 0.00 | 0.00 | 0.00 | 75 | 1020.5 |
| 20260509053117 | 53 | 0 | 0.0 | 0.9 | 0.00 | 0.00 | 0.00 | 74 | 1020.5 |
| 20260509051611 | 53 | 0 | 0.0 | 0.9 | 0.00 | 0.00 | 0.00 | 74 | 1020.4 |
| 20260509044550 | 52 | 0 | 0.0 | 2.6 | 0.00 | 0.00 | 0.00 | 72 | 1020.2 |
| 20260509043055 | 52 | 346 | 0.0 | 2.6 | 0.00 | 0.00 | 0.00 | 72 | 1020.1 |
| 20260509041551 | 52 | 0 | 0.0 | 0.9 | 0.00 | 0.00 | 0.00 | 71 | 1020.1 |
| 20260509040106 | 52 | 0 | 0.0 | 1.7 | 0.00 | 0.00 | 0.00 | 70 | 1020.2 |
| 20260509034555 | 52 | 320 | 2.6 | 7.0 | 0.00 | 0.00 | 0.00 | 70 | 1020.0 |
| 20260509033114 | 52 | 319 | 3.5 | 5.2 | 0.00 | 0.00 | 0.00 | 72 | 1020.1 |
| 20260509031558 | 51 | 0 | 0.0 | 1.7 | 0.00 | 0.00 | 0.00 | 73 | 1020.0 |
| 20260509030055 | 51 | 0 | 0.0 | 0.0 | 0.00 | 0.00 | 0.00 | 75 | 1020.1 |
| 20260509024601 | 51 | 355 | 1.7 | 4.3 | 0.00 | 0.00 | 0.00 | 75 | 1020.0 |
| 20260509023050 | 51 | 346 | 0.9 | 1.7 | 0.00 | 0.00 | 0.00 | 76 | 1020.0 |
| 20260509021553 | 51 | 0 | 0.0 | 0.9 | 0.00 | 0.00 | 0.00 | 76 | 1020.1 |
| 20260509020105 | 51 | 0 | 0.0 | 3.5 | 0.00 | 0.00 | 0.00 | 76 | 1019.9 |
| 20260509014550 | 51 | 11 | 0.9 | 2.6 | 0.00 | 0.00 | 0.00 | 76 | 1020.0 |
| 20260509013056 | 51 | 0 | 0.0 | 1.7 | 0.00 | 0.00 | 0.00 | 75 | 1020.0 |
| 20260509011558 | 52 | 200 | 0.0 | 0.9 | 0.00 | 0.00 | 0.00 | 74 | 1020.0 |
| 20260509010049 | 52 | 0 | 0.0 | 0.9 | 0.00 | 0.00 | 0.00 | 74 | 1020.0 |
| 20260509004552 | 52 | 330 | 1.7 | 3.5 | 0.00 | 0.00 | 0.00 | 74 | 1019.9 |
| 20260509003056 | 52 | 0 | 0.0 | 1.7 | 0.00 | 0.00 | 0.00 | 72 | 1020.0 |
| 20260509001551 | 53 | 0 | 0.0 | 0.0 | 0.00 | 0.00 | 0.00 | 71 | 1019.9 |
| 20260509000051 | 53 | 0 | 0.0 | 3.5 | 0.00 | 0.00 | 0.00 | 71 | 1019.8 |
| 20260508234550 | 53 | 322 | 1.7 | 4.3 | 0.00 | 0.00 | 0.00 | 70 | 1019.7 |
| 20260508233058 | 52 | 355 | 2.6 | 4.3 | 0.00 | 0.00 | 0.00 | 68 | 1019.7 |
| 20260508231556 | 52 | 330 | 2.6 | 4.3 | 0.00 | 0.00 | 0.00 | 69 | 1019.8 |
| 20260508230055 | 53 | 0 | 0.0 | 4.3 | 0.00 | 0.00 | 0.00 | 70 | 1019.8 |
| 20260508224555 | 53 | 360 | 3.5 | 4.3 | 0.00 | 0.00 | 0.00 | 70 | 1019.7 |
| 20260508223053 | 52 | 21 | 0.9 | 2.6 | 0.00 | 0.00 | 0.00 | 72 | 1019.9 |
| 20260508221555 | 52 | 312 | 0.0 | 0.9 | 0.00 | 0.00 | 0.00 | 73 | 1019.9 |
| 20260508214554 | 53 | 0 | 0.9 | 2.6 | 0.00 | 0.00 | 0.00 | 73 | 1019.8 |
| 20260508213100 | 53 | 0 | 0.0 | 0.9 | 0.00 | 0.00 | 0.00 | 73 | 1019.7 |
| 20260508211556 | 53 | 0 | 0.0 | 4.3 | 0.00 | 0.00 | 0.00 | 72 | 1019.6 |
| 20260508210054 | 53 | 355 | 2.6 | 5.2 | 0.00 | 0.00 | 0.00 | 73 | 1019.5 |
| 20260508204554 | 53 | 355 | 0.0 | 2.6 | 0.00 | 0.00 | 0.00 | 71 | 1019.6 |
| 20260508203054 | 54 | 0 | 0.0 | 4.3 | 0.00 | 0.00 | 0.00 | 69 | 1019.6 |
| 20260508201553 | 54 | 349 | 2.6 | 4.3 | 0.00 | 0.00 | 0.00 | 68 | 1019.6 |
| 20260508200053 | 54 | 355 | 2.6 | 4.3 | 0.00 | 0.00 | 0.00 | 67 | 1019.6 |
| 20260508194604 | 54 | 25 | 2.6 | 6.1 | 0.00 | 0.00 | 0.00 | 67 | 1019.4 |
| 20260508193114 | 54 | 333 | 3.5 | 6.1 | 0.00 | 0.00 | 0.00 | 66 | 1019.2 |
| 20260508191604 | 54 | 24 | 2.6 | 7.8 | 0.00 | 0.00 | 0.00 | 66 | 1019.1 |
| 20260508190109 | 54 | 336 | 3.5 | 5.2 | 0.00 | 0.00 | 0.00 | 70 | 1019.0 |
| 20260508184555 | 55 | 344 | 3.5 | 5.2 | 0.00 | 0.00 | 0.00 | 75 | 1018.8 |
| 20260508183058 | 56 | 224 | 2.6 | 4.3 | 0.00 | 0.00 | 0.00 | 75 | 1018.6 |
| 20260508181558 | 59 | 0 | 0.0 | 1.7 | 0.00 | 0.00 | 0.00 | 72 | 1018.6 |